This is the latest recevied weather packets stored in our database for station/object NY5V. If no packets are shown the sender has not sent any weather packets the latest 1 day(s).
| Time | Temp. | Humidity | Pressure | Rain* | Wind** | Luminosity | Snow |
|---|---|---|---|---|---|---|---|
| 1777999232 | 25° C | 83% | 1007.6 hPa | 0 mm | 1.34 m/s, 34° | 176 W/m² | - |
| 1777998627 | 24.44° C | 84% | 1007.5 hPa | 0 mm | 0.45 m/s, 45° | 297 W/m² | - |
| 1777998023 | 24.44° C | 84% | 1007.6 hPa | 0 mm | 1.34 m/s, 12° | 163 W/m² | - |
| 1777997423 | 23.33° C | 86% | 1007.6 hPa | 0 mm | 2.24 m/s, 330° | 224 W/m² | - |
| 1777996818 | 23.33° C | 86% | 1007.3 hPa | 0 mm | 0.45 m/s, 21° | 74 W/m² | - |
| 1777996216 | 23.33° C | 86% | 1007.3 hPa | 0 mm | 1.34 m/s, 47° | 87 W/m² | - |
| 1777995615 | 22.78° C | 86% | 1007.4 hPa | 0 mm | 1.79 m/s, 17° | 81 W/m² | - |
| 1777995015 | 22.78° C | 86% | 1007.3 hPa | 0 mm | 2.68 m/s, 10° | 106 W/m² | - |
| 1777994413 | 22.78° C | 86% | 1007.5 hPa | 0 mm | 1.34 m/s, 344° | 69 W/m² | - |
| 1777993811 | 22.78° C | 86% | 1007.6 hPa | 0 mm | 1.34 m/s, 308° | 56 W/m² | - |
| 1777993209 | 22.22° C | 86% | 1007.4 hPa | 0 mm | 0.45 m/s, 40° | 84 W/m² | - |
| 1777992604 | 22.22° C | 86% | 1007.2 hPa | 0 mm | 0.89 m/s, 355° | 76 W/m² | - |
| 1777992004 | 22.22° C | 86% | 1007.2 hPa | 0 mm | 0.45 m/s, 27° | 100 W/m² | - |
| 1777991404 | 22.22° C | 85% | 1007.5 hPa | 0 mm | 2.68 m/s, 45° | 61 W/m² | - |
| 1777990804 | 22.22° C | 86% | 1007.6 hPa | 0 mm | 1.79 m/s, 339° | 86 W/m² | - |
| 1777990204 | 21.67° C | 87% | 1007.5 hPa | 0 mm | 1.79 m/s, 320° | 91 W/m² | - |
| 1777989603 | 21.67° C | 89% | 1007.6 hPa | 0 mm | 1.79 m/s, 28° | 32 W/m² | - |
| 1777989002 | 21.11° C | 90% | 1007.5 hPa | 0 mm | 2.68 m/s, 13° | 29 W/m² | - |
| 1777988401 | 21.11° C | 92% | 1007.5 hPa | 0 mm | 0.89 m/s, 353° | 26 W/m² | - |
| 1777987799 | 20.56° C | 93% | 1007.3 hPa | 0 mm | 1.34 m/s, 32° | 36 W/m² | - |
| 1777987194 | 20.56° C | 94% | 1007.1 hPa | 0 mm | 0.45 m/s, 43° | 19 W/m² | - |
| 1777986595 | 20.56° C | 93% | 1007.1 hPa | 0 mm | 0.89 m/s, 44° | 15 W/m² | - |
| 1777985990 | 20.56° C | 93% | 1007.3 hPa | 0 mm | 0.89 m/s, 48° | 15 W/m² | - |
| 1777985389 | 20.56° C | 92% | 1007.4 hPa | 0 mm | 0.89 m/s, 48° | 13 W/m² | - |
| 1777984787 | 21.11° C | 91% | 1007 hPa | 0 mm | 1.34 m/s, 6° | 8 W/m² | - |
* Rain latest hour (hover to see other rain measurements)
** Current wind speed in m/s (hover to see current wind gust speed)